Location: Songkhla
(7.2000°N, 100.6000°E)
Time: 20:14:41
(UTC+07:00)

ISS - Pass Details

Date: 25 April 2026
Orbit: 414 x 424 km, 51.6° (Epoch: 19 May)

Event Time Altitude Azimuth Distance (km) Brightness Sun altitude
Rises 23:21:16 0° 205° (SSW) 2,336 - -65.4°
Reaches altitude 10° 23:23:25 10° 198° (SSW) 1,474 - -65.7°
Maximum altitude 23:26:34 42° 125° (SE) 595 - -66.1°
Drops below altitude 10° 23:29:44 10° 53° (NE) 1,474 - -66.5°
Sets 23:31:52 0° 46° (NE) 2,336 - -66.8°
